Regional Weather Roundup
Issued by NWS

Home | Current Version | Previous Version | Graphics & Text | Print | Product List | Glossary On
Versions: 1 2 3 4 5 6 7 8 9 10 11 12 13 14 15 16 17 18 19 20 21 22 23 24 25 26 27 28 29 30 31 32 33 34 35 36 37 38 39 40 41 42 43 44 45 46 47 48 49 50
000
ASUS43 KIND 271709
RWRIN

WEATHER ROUNDUP FOR INDIANA
NATIONAL WEATHER SERVICE INDIANAPOLIS IN
100 PM EDT SUN JUL 27 2014

NOTE: "FAIR" INDICATES FEW OR NO CLOUDS BELOW 12,000 FEET WITH NO
SIGNIFICANT WEATHER AND/OR OBSTRUCTIONS TO VISIBILITY.

* - STATION DOES NOT REPORT WEATHER SUCH AS PRECIPITATION OR FOG.

+ - STATION NOT QUALITY CONTROLLED BY THE NATIONAL WEATHER SERVICE.
    USE DATA WITH CAUTION...ESPECIALLY DEWPOINT AND RELATIVE
    HUMIDITY OBSERVATIONS.

INZ001>003-010>013-019-020-271800-
NORTHWEST INDIANA

CITY           SKY/WX    TMP DP  RH WIND       PRES   REMARKS
GARY /AIRPORT/ MOSUNNY   86  64  48 SW12      29.74F
RENSSELAER +   MOSUNNY   82  73  74 W10       29.76F
VALPARAISO     SUNNY     84  67  56 W10       29.75F

$$

LMZ046-743>745-271800-
SOUTHERN LAKE MICHIGAN

STATION/POSITION TIME  TEMP WIND        PRES
                       AIR  DIR/SP/G
                 (UTC) (F)  (DEG/KT/KT) (MB)
BURNS HARBOR     1700   77  290/  4/  6 1007.5S
MICHIGAN CITY    1700   75  230/ 10/ 10   N/A

$$

INZ004-005-014>016-021>024-271800-
NORTH CENTRAL INDIANA

CITY           SKY/WX    TMP DP  RH WIND       PRES   REMARKS
ELKHART        MOSUNNY   82  66  57 W9        29.74
GOSHEN         PTSUNNY   81  69  67 W8        29.73F
PERU/GRISSOM   CLOUDY    73  73 100 W13       29.77F
ROCHESTER +    PTSUNNY   81  72  74 S8        29.76F
SOUTH BEND     PTSUNNY   83  66  56 VRB6      29.74F

$$

INZ006>009-017-018-025>027-271800-
NORTHEAST INDIANA

CITY           SKY/WX    TMP DP  RH WIND       PRES   REMARKS
ANGOLA *+      MOSUNNY   84  70  61 W8        29.73F
FORT WAYNE     CLOUDY    74  70  87 SW13      29.76F
HUNTINGTON +   CLOUDY    73  71  93 W9        29.76S

$$

INZ028-029-035-036-043>045-051>053-271800-
WEST CENTRAL INDIANA

CITY           SKY/WX    TMP DP  RH WIND       PRES   REMARKS
GREENCASTLE +  PTSUNNY   79  73  83 W8        29.81S HAZE
LAFAYETTE      PTSUNNY   79  72  79 SW7       29.78F
TERRE HAUTE    PTSUNNY   82  73  74 NW12      29.80S

$$

INZ030>032-037>040-046>048-054>057-064-065-271800-
CENTRAL INDIANA

CITY           SKY/WX    TMP DP  RH WIND       PRES   REMARKS
INDIANAPOLIS   CLOUDY    74  71  91 S8        29.79S
-EAGLE CREEK   CLOUDY    79  72  79 S9        29.78F
KOKOMO *+      CLOUDY    75  72  88 W12       29.78S
MARION +       CLOUDY    75  70  84 W9        29.77F
MT COMFORT *+  CLOUDY    75 N/A N/A S12       29.80F
SHELBYVILLE    LGT RAIN  73  70  90 S10       29.80F

$$

INZ033-034-041-042-049-050-058-059-271800-
EAST CENTRAL INDIANA

CITY           SKY/WX    TMP DP  RH WIND       PRES   REMARKS
MUNCIE         CLOUDY    77  70  79 SW7       29.77F

$$

INZ060-061-067>069-081>083-085>088-271800-
SOUTHWEST INDIANA

CITY           SKY/WX    TMP DP  RH WIND       PRES   REMARKS
EVANSVILLE     PTSUNNY   86  75  69 W14       29.83F HX  95

$$

INZ062-063-066-070>080-084-089>092-271800-
SOUTH CENTRAL AND SOUTHEAST INDIANA

CITY           SKY/WX    TMP DP  RH WIND       PRES   REMARKS
BLOOMINGTON    CLOUDY    80  76  87 W5        29.81S FOG
SEYMOUR +      CLOUDY    70  63  78 S8        29.80F

$$



USA.gov is the U.S. government's official web portal to all federal, state and local government web resources and services.